Powrót do katalogu

TAURUS 1

AktywnyŁącznośćVLEO
NORAD 66305·PAYLOAD·🇹🇷 Turkey
Ta nazwa satelity nie została jeszcze potwierdzona przez oficjalne źródła.

Wystrzelony Nov 2, 2025 z Cape Canaveral Space Force Station

Loading…

Następne Przeloty (najbliższe 24 godziny)

TLE

ŚwieżeSource: Space-Track

Epoka: Sep 14, 2026, 13:02 UTC

1 66305U 25248N   26257.54336436  .00014854  00000-0  50249-3 0  9992
2 66305  45.4210 347.9912 0008484 216.9562 143.0745 15.30546717 46157

Śledź TAURUS 1 w czasie rzeczywistym z AllMySat

Download on the App Store